1506679200.1,38816,17.94,74536.3,11.65,-0.07,-1.55,0,*4C
1506679201.31,38817,17.94,74538.0,11.65,-0.49,-1.87,0,*78
1506679202.5,38818,17.88,74532.8,11.65,-0.15,-1.55,0,*71
1506679203.72,38819,17.88,74534.8,11.65,-1.01,-2.31,0,*45
1506679204.91,38820,17.94,74534.0,11.65,-0.45,-1.71,0,*79
1506679206.1,38821,17.88,74534.0,11.65,-0.57,-1.75,0,*7F
1506679207.31,38822,17.94,74532.0,11.65,-0.61,-1.83,0,*70
1506679208.5,38823,17.94,74538.5,11.65,-0.45,-1.55,0,*7C
1506679209.71,38824,17.94,74538.3,11.65,-0.45,-1.43,0,*7C
1506679210.9,38825,17.94,74534.3,11.65,0.01,-0.93,0,*5C
1506679212.12,38826,17.94,74536.3,11.63,-0.11,-1.09,0,*77
1506679213.34,38827,17.88,74534.5,11.63,0.17,-0.85,0,*68
1506679214.54,38828,17.94,74536.3,11.63,0.17,-0.69,0,*65
1506679215.77,38829,17.88,74534.0,11.65,0.51,-0.27,0,*6A
1506679216.96,38830,17.94,74538.0,11.65,0.17,-0.61,0,*62
1506679218.16,38831,17.94,74536.3,11.65,0.37,-0.33,0,*66
1506679219.38,38832,17.88,74536.5,11.65,0.87,0.17,0,*45
1506679220.63,38833,17.94,74538.3,11.67,0.83,0.21,0,*47
1506679221.89,38834,17.94,74536.3,11.67,-0.23,-0.93,0,*43
1506679223.1,38835,17.88,74532.5,11.67,-0.65,-1.33,0,*7B
1506679224.31,38836,17.94,74536.5,11.65,-0.37,-1.09,0,*74
1506679225.53,38837,17.88,74534.5,11.67,-0.65,-1.33,0,*79
1506679226.74,38838,17.94,74536.8,11.67,-0.45,-1.17,0,*72
1506679227.99,38839,17.94,74536.8,11.67,-0.77,-1.43,0,*73
1506679229.2,38840,17.94,74540.8,11.67,-0.57,-1.17,0,*7E
1506679230.39,38841,17.88,74534.5,11.65,-0.57,-1.25,0,*7C
1506679231.59,38842,17.88,74536.3,11.65,-0.37,-0.97,0,*41
1506679232.82,38843,17.88,74534.8,11.65,-0.23,-0.85,0,*46
1506679234.0,38844,17.94,74536.3,11.65,0.05,-0.57,0,*57
1506679235.22,38845,17.94,74536.0,11.65,-0.27,-0.85,0,*44
1506679236.44,38846,17.88,74530.8,11.65,-0.45,-1.01,0,*7E
1506679237.66,38847,17.88,74534.8,11.65,-1.13,-1.71,0,*4A
1506679238.86,38848,17.94,74536.8,11.63,-1.33,-1.75,0,*45
1506679240.13,38849,17.94,74538.0,11.61,-1.35,-1.99,0,*42
1506679241.41,38850,17.88,74534.5,11.61,-1.39,-2.11,0,*45
1506679242.65,38851,17.88,74538.0,11.59,-1.95,-2.59,0,*45
1506679243.87,38852,17.88,74538.0,11.57,-1.67,-2.31,0,*4B
1506679245.09,38853,17.88,74534.8,11.57,-1.75,-2.39,0,*41
1506679246.28,38854,17.88,74534.8,11.51,-0.73,-1.33,0,*7E
1506679247.47,38855,17.88,74536.5,11.51,-0.57,-1.25,0,*7E
1506679248.69,38856,17.88,74536.8,11.51,-0.69,-1.43,0,*70
1506679249.91,38857,17.88,74532.5,11.51,-0.69,-1.35,0,*70
1506679251.12,38858,17.88,74534.0,11.51,-0.37,-1.09,0,*7B
1506679252.31,38859,17.94,74538.0,11.51,-0.81,-1.55,0,*7E
1506679253.53,38860,17.88,74534.0,11.51,-0.61,-1.43,0,*7D
1506679254.73,38861,17.88,74536.3,11.49,-0.61,-1.29,0,*79
1506679256.0,38862,17.88,74534.8,11.49,-1.13,-2.07,0,*41
1506679257.2,38863,17.88,74532.3,11.47,-1.55,-2.27,0,*4E
1506679258.39,38864,17.88,74536.8,11.47,-0.81,-1.63,0,*72
1506679259.59,38865,17.88,74536.8,11.47,-0.57,-1.29,0,*76
1506679260.82,38866,17.94,74538.8,11.47,-0.27,-0.93,0,*42
1506679262.08,38867,17.88,74536.5,11.49,-0.23,-1.01,0,*73
1506679263.27,38868,17.88,74536.0,11.47,-0.53,-1.29,0,*7F
1506679264.48,38869,17.88,74532.8,11.45,-0.45,-1.29,0,*7B
1506679265.72,38870,17.88,74532.3,11.45,-0.19,-0.89,0,*41
1506679266.91,38871,17.88,74532.5,11.47,-0.45,-1.21,0,*78
1506679268.16,38872,17.88,74534.3,11.45,-0.65,-1.39,0,*72
1506679269.37,38873,17.88,74534.8,11.45,-0.33,-1.17,0,*7C
1506679270.58,38874,17.88,74536.0,11.45,-0.53,-1.29,0,*70
1506679271.83,38875,17.88,74536.5,11.45,-0.57,-1.39,0,*74
1506679273.07,38876,17.88,74534.0,11.45,-0.89,-1.67,0,*7F
1506679274.28,38877,17.88,74536.8,11.43,-0.11,-0.97,0,*47
1506679275.56,38878,17.88,74536.0,11.45,-1.13,-2.03,0,*42
1506679276.82,38879,17.88,74532.3,11.45,-1.13,-1.95,0,*4F
1506679278.01,38880,17.88,74538.3,11.43,-0.61,-1.67,0,*76
1506679279.23,38881,17.94,74536.5,11.43,-0.45,-1.35,0,*76
1506679280.47,38882,17.88,74536.0,11.41,-0.49,-1.35,0,*7B
1506679281.65,38883,17.88,74538.8,11.43,0.05,-0.81,0,*53
1506679282.88,38884,17.88,74538.8,11.41,0.37,-0.49,0,*63
1506679284.13,38885,17.88,74538.3,11.45,0.59,-0.27,0,*66
1506679285.35,38886,17.88,74538.8,11.43,0.17,-0.85,0,*61
1506679286.55,38887,17.88,74536.5,11.45,-0.29,-1.33,0,*7A
1506679287.78,38888,17.94,74542.3,11.45,-1.29,-2.31,0,*45
1506679289.02,38889,17.88,74536.3,11.45,-0.81,-1.95,0,*7A
1506679290.26,38890,17.88,74536.8,11.45,-0.77,-1.91,0,*7F
1506679291.48,38891,17.88,74536.0,11.43,-0.33,-1.35,0,*76
1506679292.67,38892,17.88,74538.5,11.43,-0.33,-1.55,0,*73
1506679293.86,38893,17.88,74538.3,11.45,0.43,-0.65,0,*6C
1506679295.05,38894,17.88,74534.8,11.43,-0.33,-1.55,0,*75
1506679296.27,38895,17.88,74536.0,11.43,-0.69,-1.83,0,*70
1506679297.48,38896,17.94,74538.8,11.45,-0.57,-1.75,0,*71
1506679298.68,38897,17.88,74536.3,11.43,-0.73,-1.79,0,*7C
1506679299.89,38898,17.88,74536.3,11.45,-0.07,-1.21,0,*4B
1506679301.13,38899,17.88,74536.0,11.45,-0.03,-1.05,0,*48
1506679302.33,38900,17.88,74536.5,11.43,-0.69,-1.71,0,*70
1506679303.55,38901,17.88,74538.8,11.45,-0.15,-1.21,0,*79
1506679304.76,38902,17.88,74538.3,11.43,-0.69,-1.91,0,*7C
1506679305.98,38903,17.88,74536.3,11.43,-0.69,-1.91,0,*7D
1506679307.2,38904,17.88,74538.8,11.43,-0.69,-1.91,0,*7A
1506679308.38,38905,17.88,74538.3,11.43,0.43,-0.81,0,*6E
1506679309.62,38906,17.88,74536.5,11.45,0.29,-0.93,0,*64
1506679310.83,38907,17.88,74536.8,11.45,-0.03,-1.17,0,*4D
1506679312.08,38908,17.88,74536.8,11.45,0.33,-0.93,0,*61
1506679313.3,38909,17.88,74536.3,11.45,0.41,-0.69,0,*60
1506679314.51,38910,17.88,74534.8,11.47,-0.03,-1.13,0,*4D
1506679315.71,38911,17.88,74538.8,11.47,-0.19,-1.21,0,*76
1506679316.91,38912,17.88,74536.8,11.47,0.17,-0.81,0,*6D
1506679318.13,38913,17.88,74534.8,11.47,0.17,-0.89,0,*64
1506679319.35,38914,17.88,74538.0,11.49,0.09,-0.89,0,*52
1506679320.56,38915,17.88,74532.5,11.49,-0.29,-1.29,0,*77
1506679321.78,38916,17.88,74538.5,11.49,0.09,-0.89,0,*50
1506679322.96,38917,17.88,74534.5,11.47,0.05,-0.81,0,*5B
1506679324.18,38918,17.88,74536.3,11.47,-0.57,-1.43,0,*71
1506679325.39,38919,17.88,74534.5,11.47,-0.29,-1.13,0,*7C
1506679326.6,38920,17.88,74536.3,11.47,-0.65,-1.43,0,*7B
1506679327.83,38921,17.88,74536.5,11.47,-1.01,-1.63,0,*4B
1506679329.02,38922,17.88,74536.3,11.43,-0.73,-1.55,0,*7D
1506679330.24,38923,17.88,74536.5,11.45,-0.77,-1.55,0,*7E
1506679331.47,38924,17.88,74536.0,11.45,-0.29,-1.01,0,*73
1506679332.69,38925,17.88,74536.3,11.43,-0.33,-1.05,0,*7B
1506679333.94,38926,17.88,74538.5,11.45,-1.17,-1.87,0,*43
1506679335.21,38927,17.88,74538.0,11.41,-1.83,-2.47,0,*44
1506679336.41,38928,17.88,74540.8,11.39,-1.63,-2.27,0,*4C
1506679337.66,38929,17.88,74538.8,11.37,-2.51,-3.15,0,*41
1506679338.89,38930,17.88,74536.5,11.31,-1.71,-2.31,0,*49
1506679340.15,38931,17.88,74538.3,11.29,-1.47,-1.99,0,*45
1506679341.4,38932,17.88,74536.3,11.29,-1.01,-1.47,0,*47
1506679342.62,38933,17.88,74536.5,11.29,-1.01,-1.51,0,*41
1506679343.9,38934,17.88,74538.0,11.27,-1.47,-1.87,0,*41
1506679345.12,38935,17.88,74536.5,11.25,-1.35,-1.63,0,*4D
1506679346.35,38936,17.88,74538.0,11.25,-1.17,-1.43,0,*4C
1506679347.58,38937,17.88,74532.5,11.25,-0.89,-1.13,0,*7E
1506679348.87,38938,17.88,74540.0,11.23,-1.05,-1.39,0,*4A
1506679350.12,38939,17.88,74538.3,11.23,-1.13,-1.29,0,*4D
1506679351.35,38940,17.88,74534.8,11.21,-1.33,-1.43,0,*4F
1506679352.58,38941,17.88,74538.8,11.21,-1.67,-1.83,0,*43
1506679353.79,38942,17.88,74536.5,11.17,-1.75,-1.95,0,*41
1506679355.02,38943,17.88,74534.0,11.17,-1.47,-1.67,0,*4C
1506679356.28,38944,17.88,74536.3,11.15,-1.29,-1.47,0,*43
1506679357.53,38945,17.88,74538.0,11.15,-1.05,-1.17,0,*49
1506679358.75,38946,17.88,74534.8,11.13,-0.69,-0.85,0,*4D
1506679359.93,38947,17.88,74538.0,11.13,-0.57,-0.65,0,*4F
1506679361.14,38948,17.88,74536.5,11.13,-1.17,-1.33,0,*47
1506679362.37,38949,17.88,74538.3,11.13,-1.43,-1.67,0,*46
1506679363.59,38950,17.88,74538.0,11.07,-2.19,-2.23,0,*44
1506679364.84,38951,17.88,74538.5,11.07,-1.75,-1.83,0,*45
1506679366.1,38952,17.88,74536.8,11.03,-1.29,-1.39,0,*4A
1506679367.33,38953,17.88,74532.5,11.05,-1.17,-1.35,0,*4C
1506679368.56,38954,17.88,74536.5,11.03,-0.73,-0.77,0,*49
1506679369.75,38955,17.88,74538.3,11.05,-0.53,-0.53,0,*4A
1506679370.97,38956,17.88,74538.3,11.03,-0.15,-0.15,0,*4F
1506679372.18,38957,17.88,74536.0,11.03,-0.37,-0.29,0,*41
1506679373.4,38958,17.88,74536.3,11.03,-0.15,-0.07,0,*72
1506679374.58,38959,17.88,74536.0,11.05,-0.07,-0.07,0,*46
1506679375.79,38960,17.88,74536.5,11.03,-0.29,-0.29,0,*4A
1506679377.04,38961,17.88,74536.0,11.03,0.13,0.25,0,*4E
1506679378.26,38962,17.88,74538.8,11.03,-0.03,-0.15,0,*7F
1506679379.48,38963,17.88,74538.0,11.03,0.09,0.13,0,*72
1506679380.71,38964,17.88,74536.8,11.05,0.13,0.21,0,*49
1506679381.9,38965,17.88,74538.0,11.05,-0.49,-0.37,0,*40
1506679383.12,38966,17.88,74536.5,11.03,0.01,0.13,0,*7F
1506679384.36,38967,17.88,74536.5,11.03,-0.27,-0.19,0,*40
1506679385.58,38968,17.88,74538.0,11.03,-0.65,-0.61,0,*46
1506679386.79,38969,17.88,74536.5,11.03,-0.29,-0.19,0,*40
1506679387.98,38970,17.88,74536.3,11.01,-0.69,-0.65,0,*45
1506679389.24,38971,17.88,74536.0,10.99,-1.83,-1.83,0,*48
1506679390.5,38972,17.88,74538.3,10.99,-1.43,-1.39,0,*46
1506679391.71,38973,17.88,74536.5,10.97,-1.21,-1.09,0,*4E
1506679392.93,38974,17.88,74538.3,10.95,-0.53,-0.37,0,*43
1506679394.13,38975,17.88,74536.5,10.97,0.37,0.37,0,*42
1506679395.35,38976,17.88,74536.5,10.97,0.37,0.51,0,*41
1506679396.56,38977,17.88,74538.8,10.97,0.59,0.75,0,*4E
1506679397.79,38978,17.88,74536.8,10.99,0.51,0.63,0,*40
1506679399.03,38979,17.88,74534.3,10.99,0.55,0.71,0,*46
1506679400.23,38980,17.88,74536.0,10.99,-0.33,-0.29,0,*4D
1506679401.45,38981,17.88,74536.8,11.01,-0.97,-0.77,0,*49
1506679402.64,38982,17.88,74534.5,10.99,-0.03,0.05,0,*6F
1506679403.87,38983,17.88,74534.8,10.99,0.17,0.29,0,*48
1506679405.11,38984,17.88,74538.0,10.99,0.51,0.55,0,*46
1506679406.31,38985,17.88,74538.5,10.99,-0.57,-0.53,0,*47
1506679407.51,38986,17.88,74536.8,10.99,-0.65,-0.57,0,*41
1506679408.71,38987,17.88,74536.0,10.99,-0.11,-0.03,0,*72
1506679409.94,38988,17.88,74538.0,10.99,-0.33,-0.23,0,*4F
1506679411.13,38989,17.88,74540.0,11.01,0.09,0.17,0,*70
1506679412.3,38990,17.88,74536.0,11.01,0.05,0.09,0,*4B
1506679413.5,38991,17.88,74536.8,11.01,0.29,0.43,0,*4A
1506679414.71,38992,17.88,74536.0,10.99,0.43,0.55,0,*42
1506679415.91,38993,17.88,74536.8,10.99,-0.81,-0.65,0,*4E
1506679417.11,38994,17.88,74536.0,10.99,-0.81,-0.65,0,*49
1506679418.31,38995,17.88,74536.8,10.99,-0.11,-0.03,0,*71
1506679419.52,38996,17.88,74538.0,10.99,0.43,0.63,0,*43
1506679420.76,38997,17.88,74538.0,10.99,0.83,0.91,0,*43
1506679421.98,38998,17.88,74538.8,11.01,0.51,0.67,0,*4A
1506679423.21,38999,17.88,74538.0,11.01,0.79,0.83,0,*4B
1506679424.43,39000,17.88,74534.0,11.01,0.67,0.83,0,*4C
1506679425.63,39001,17.88,74534.5,11.05,0.95,0.97,0,*41
1506679426.88,39002,17.88,74540.0,11.03,0.21,0.33,0,*45
1506679428.08,39003,17.88,74536.0,11.05,-0.41,-0.37,0,*40
1506679429.3,39004,17.88,74538.5,11.05,0.37,0.55,0,*42
1506679430.55,39005,17.88,74538.8,11.03,0.67,0.83,0,*4B
1506679431.79,39006,17.88,74536.3,11.05,0.55,0.75,0,*46
1506679433.02,39007,17.88,74538.8,11.05,0.75,0.87,0,*48
1506679434.25,39008,17.88,74540.0,11.05,0.47,0.75,0,*4B
1506679435.47,39009,17.88,74538.8,11.05,0.37,0.59,0,*43
1506679436.73,39010,17.88,74538.5,11.07,0.37,0.51,0,*41
1506679437.98,39011,17.88,74536.0,11.11,0.67,0.91,0,*4E
1506679439.23,39012,17.88,74536.3,11.07,0.63,0.87,0,*49
1506679440.47,39013,17.88,74538.5,11.11,1.13,1.41,0,*42
1506679441.72,39014,17.88,74534.5,11.11,0.79,0.95,0,*40
1506679442.97,39015,17.88,74536.5,11.15,0.67,0.87,0,*49
1506679444.21,39016,17.88,74538.5,11.11,-0.23,-0.11,0,*41
1506679445.41,39017,17.81,74534.8,11.13,-0.29,-0.11,0,*48
1506679446.57,39018,17.88,74538.0,11.13,0.01,0.09,0,*44
1506679447.79,39019,17.88,74536.3,11.13,-0.41,-0.23,0,*49
1506679449.03,39020,17.88,74536.3,11.11,-0.85,-0.69,0,*47
1506679450.28,39021,17.88,74534.3,11.07,-1.55,-1.43,0,*44
1506679451.55,39022,17.88,74536.5,11.07,-1.01,-0.97,0,*7E
1506679452.75,39023,17.88,74536.5,11.05,-1.25,-1.17,0,*42
1506679454.01,39024,17.88,74536.8,11.05,-1.47,-1.39,0,*4D
1506679455.24,39025,17.88,74538.8,11.03,-1.25,-1.17,0,*42
1506679456.44,39026,17.88,74538.5,10.99,-0.69,-0.69,0,*42
1506679457.67,39027,17.88,74534.3,10.99,-0.41,-0.23,0,*47
1506679458.87,39028,17.88,74538.5,10.99,-0.53,-0.33,0,*4A
1506679460.08,39029,17.88,74532.3,10.99,-0.57,-0.45,0,*4E
1506679461.27,39030,17.88,74536.3,10.99,-0.45,-0.29,0,*4F
1506679462.48,39031,17.88,74536.8,10.95,-0.29,-0.15,0,*47
1506679463.67,39032,17.88,74538.0,10.97,-1.33,-1.25,0,*4E
1506679464.88,39033,17.88,74536.3,10.95,-1.25,-1.25,0,*4A
1506679466.08,39034,17.88,74534.0,10.95,-0.61,-0.61,0,*4D
1506679467.34,39035,17.88,74536.5,10.95,-1.05,-1.13,0,*4B
1506679468.52,39036,17.88,74536.3,10.93,-0.69,-0.57,0,*44
1506679469.71,39037,17.88,74538.3,10.93,-0.57,-0.41,0,*4F
1506679470.91,39038,17.81,74534.0,10.93,-0.23,-0.15,0,*42
1506679472.09,39039,17.81,74532.5,10.93,-0.53,-0.33,0,*40
1506679473.3,39040,17.88,74534.8,10.91,-0.41,-0.29,0,*44
1506679474.47,39041,17.88,74536.8,10.93,-0.07,-0.03,0,*4D
1506679475.7,39042,17.88,74532.5,10.91,-0.93,-0.77,0,*42
1506679476.93,39043,17.88,74534.8,10.91,-1.05,-0.81,0,*74
1506679478.13,39044,17.88,74532.3,10.91,-0.07,0.05,0,*61
1506679479.35,39045,17.88,74534.8,10.91,-0.15,0.17,0,*60
1506679480.55,39046,17.81,74534.8,10.91,-0.19,-0.03,0,*77
1506679481.75,39047,17.81,74532.3,10.91,-0.57,-0.29,0,*44
1506679482.96,39048,17.81,74532.5,10.91,-0.57,-0.33,0,*40
1506679484.18,39049,17.88,74536.8,10.91,0.05,0.21,0,*75
1506679485.41,39050,17.88,74536.5,10.85,-1.09,-0.97,0,*78
1506679486.62,39051,17.88,74534.5,10.89,-1.43,-1.33,0,*44
1506679487.85,39052,17.81,74534.3,10.85,-1.13,-0.89,0,*7E
1506679489.08,39053,17.81,74532.0,10.83,-1.17,-1.13,0,*4F
1506679490.33,39054,17.88,74534.8,10.83,-0.97,-0.89,0,*43
1506679491.54,39055,17.88,74538.8,10.83,-0.15,-0.11,0,*49
1506679492.72,39056,17.88,74534.0,10.81,-0.53,-0.45,0,*4B
1506679493.9,39057,17.88,74534.8,10.81,-0.69,-0.69,0,*4D
1506679495.1,39058,17.81,74534.3,10.83,-0.11,-0.07,0,*77
1506679496.3,39059,17.81,74532.0,10.83,-0.11,0.09,0,*55
1506679497.53,39060,17.88,74538.3,10.83,0.59,0.71,0,*41
1506679498.77,39061,17.88,74536.0,10.83,0.47,0.51,0,*4D
1506679499.96,39062,17.88,74534.3,10.85,0.95,1.05,0,*77
1506679501.18,39063,17.88,74536.5,10.85,0.51,0.59,0,*46
1506679502.39,39064,17.88,74536.5,10.85,0.29,0.37,0,*46
1506679503.6,39065,17.88,74536.0,10.85,0.25,0.33,0,*4F
1506679504.8,39066,17.81,74532.3,10.89,0.67,0.67,0,*47
1506679506.01,39067,17.81,74536.5,10.89,0.37,0.41,0,*47
1506679507.24,39068,17.81,74534.0,10.91,0.33,0.33,0,*40
1506679508.48,39069,17.88,74532.3,10.91,0.41,0.33,0,*44
1506679509.69,39070,17.81,74532.0,10.91,0.29,0.43,0,*45
1506679510.93,39071,17.88,74538.3,10.91,0.51,0.59,0,*40
1506679512.13,39072,17.88,74534.0,10.91,-0.15,-0.07,0,*78
1506679513.37,39073,17.81,74532.5,10.91,0.55,0.67,0,*4B
1506679514.57,39074,17.81,74532.8,10.91,-0.07,0.05,0,*62
1506679515.78,39075,17.81,74532.0,10.91,-0.57,-0.33,0,*4E
1506679517.01,39076,17.88,74536.0,10.91,-0.23,-0.15,0,*4A
1506679518.25,39077,17.81,74534.0,10.91,0.29,0.51,0,*41
1506679519.49,39078,17.88,74534.5,10.91,0.21,0.33,0,*42
1506679520.69,39079,17.81,74532.8,10.93,0.17,0.17,0,*42
1506679521.93,39080,17.81,74532.3,10.91,0.71,0.83,0,*4B
1506679523.17,39081,17.88,74538.3,10.91,0.55,0.67,0,*46
1506679524.39,39082,17.81,74532.3,10.93,0.59,0.83,0,*41
1506679525.57,39083,17.88,74538.0,10.93,0.43,0.59,0,*4C
1506679526.78,39084,17.81,74534.8,10.93,0.41,0.59,0,*49
1506679527.97,39085,17.88,74534.3,10.93,0.29,0.43,0,*4D
1506679529.17,39086,17.81,74532.5,10.93,-0.03,0.21,0,*5F
1506679530.37,39087,17.88,74534.0,10.93,-0.23,-0.07,0,*75
1506679531.55,39088,17.81,74534.3,10.93,-0.07,0.17,0,*50
1506679532.77,39089,17.88,74534.5,10.91,0.17,0.43,0,*4E
1506679533.95,39090,17.81,74532.8,10.93,0.09,0.33,0,*7C
1506679535.13,39091,17.88,74538.3,10.93,0.43,0.59,0,*4F
1506679536.33,39092,17.81,74536.5,10.93,0.79,1.05,0,*7D
1506679537.52,39093,17.81,74532.3,10.93,0.83,1.01,0,*7D
1506679538.78,39094,17.88,74534.8,10.95,1.17,1.43,0,*46
1506679540.03,39095,17.81,74534.8,10.95,1.47,1.67,0,*44
1506679541.25,39096,17.81,74534.5,10.99,1.75,2.01,0,*49
1506679542.46,39097,17.81,74532.0,11.01,1.01,1.29,0,*42
1506679543.69,39098,17.88,74536.5,11.01,0.71,0.83,0,*4A
1506679544.91,39099,17.81,74534.3,11.01,0.33,0.55,0,*46
1506679546.14,39100,17.88,74536.0,11.01,0.55,0.83,0,*4C
1506679547.35,39101,17.81,74536.0,11.01,1.05,1.29,0,*48
1506679548.55,39102,17.88,74536.3,11.01,1.47,1.75,0,*44
1506679549.79,39103,17.81,74532.5,11.05,1.43,1.55,0,*47
1506679551.02,39104,17.88,74538.3,11.05,0.67,0.87,0,*49
1506679552.23,39105,17.88,74536.3,11.05,0.87,1.05,0,*7D
1506679553.45,39106,17.81,74532.3,11.05,0.47,0.67,0,*47
1506679554.66,39107,17.81,74534.5,11.05,0.83,0.97,0,*41
1506679555.87,39108,17.81,74532.8,11.05,1.05,1.29,0,*45
1506679557.13,39109,17.81,74532.8,11.11,0.79,0.91,0,*49
1506679558.38,39110,17.88,74536.3,11.11,0.63,0.79,0,*4C
1506679559.64,39111,17.81,74532.5,11.11,0.55,0.79,0,*48
1506679560.91,39112,17.81,74534.5,11.07,1.21,1.25,0,*46
1506679562.14,39113,17.81,74532.0,11.11,1.79,1.97,0,*44
1506679563.38,39114,17.81,74532.5,11.13,1.85,2.01,0,*4E
1506679564.57,39115,17.81,74532.8,11.17,1.79,1.83,0,*41
1506679565.8,39116,17.81,74534.0,11.17,1.89,1.93,0,*4C
1506679567.06,39117,17.81,74534.3,11.19,1.67,1.59,0,*45
1506679568.33,39118,17.81,74532.3,11.19,1.25,1.33,0,*40
1506679569.59,39119,17.88,74538.8,11.19,1.67,1.59,0,*4B
1506679570.83,39120,17.81,74532.8,11.19,1.41,1.47,0,*4A
1506679572.09,39121,17.81,74532.3,11.23,1.43,1.51,0,*47
1506679573.36,39122,17.81,74536.3,11.23,1.17,1.29,0,*4A
1506679574.59,39123,17.81,74532.5,11.23,1.67,1.75,0,*45
1506679575.82,39124,17.81,74536.5,11.25,1.89,1.89,0,*47
1506679577.05,39125,17.81,74534.0,11.25,1.51,1.55,0,*42
1506679578.31,39126,17.81,74532.3,11.27,2.05,2.09,0,*4B
1506679579.57,39127,17.81,74532.8,11.27,2.09,2.17,0,*49
1506679580.81,39128,17.81,74536.0,11.29,2.05,2.05,0,*47
1506679582.04,39129,17.81,74534.5,11.31,2.25,2.31,0,*4A
1506679583.28,39130,17.81,74534.3,11.37,2.17,2.27,0,*42
1506679584.53,39131,17.81,74538.0,11.35,1.85,1.85,0,*42
1506679585.78,39132,17.81,74536.3,11.37,1.89,1.89,0,*43
1506679587.05,39133,17.81,74536.8,11.37,2.05,2.17,0,*41
1506679588.32,39134,17.81,74534.5,11.41,2.51,2.51,0,*44
1506679589.57,39135,17.81,74532.0,11.41,1.97,1.93,0,*41
1506679590.81,39136,17.81,74534.5,11.41,2.39,2.31,0,*4E
1506679592.07,39137,17.81,74534.8,11.45,1.97,1.85,0,*40
1506679593.33,39138,17.81,74536.0,11.45,1.63,1.51,0,*4D
1506679594.59,39139,17.81,74536.0,11.45,2.01,2.01,0,*4D
1506679595.84,39140,17.81,74534.8,11.45,2.13,2.01,0,*40
1506679597.05,39141,17.81,74532.3,11.45,2.27,2.27,0,*42
1506679598.3,39142,17.81,74532.0,11.49,2.21,2.05,0,*4B
1506679599.53,39143,17.81,74534.5,11.49,1.89,1.83,0,*46
1506679600.77,39144,17.81,74534.0,11.47,1.55,1.29,0,*4E
1506679601.96,39145,17.81,74534.3,11.47,1.79,1.75,0,*48
1506679603.17,39146,17.81,74532.0,11.51,1.93,1.75,0,*48
1506679604.42,39147,17.81,74532.8,11.53,2.13,1.97,0,*4C
1506679605.66,39148,17.81,74532.8,11.53,2.43,2.35,0,*4D
1506679606.89,39149,17.81,74534.5,11.53,2.59,2.35,0,*47
1506679608.12,39150,17.81,74532.3,11.53,2.77,2.65,0,*46
1506679609.38,39151,17.81,74532.8,11.57,2.13,2.09,0,*4B
1506679610.59,39152,17.81,74532.5,11.59,2.77,2.65,0,*4E
1506679611.84,39153,17.81,74534.5,11.61,2.21,2.05,0,*41
1506679613.11,39154,17.81,74534.0,11.61,2.17,2.17,0,*40
1506679614.34,39155,17.81,74534.5,11.63,2.09,1.93,0,*43
1506679615.58,39156,17.81,74532.8,11.63,2.43,2.25,0,*40
1506679616.81,39157,17.81,74532.3,11.65,1.71,1.59,0,*4D
1506679618.04,39158,17.81,74534.5,11.65,1.85,1.93,0,*4F
1506679619.3,39159,17.81,74534.0,11.67,1.85,1.67,0,*47
1506679620.56,39160,17.81,74534.8,11.67,1.63,1.55,0,*44
1506679621.78,39161,17.81,74534.8,11.65,1.51,1.47,0,*45
1506679623.04,39162,17.81,74534.0,11.67,1.55,1.43,0,*44
1506679624.27,39163,17.81,74532.8,11.67,1.55,1.41,0,*47
1506679625.52,39164,17.81,74536.3,11.67,1.51,1.51,0,*45
1506679626.79,39165,17.81,74532.0,11.67,1.55,1.51,0,*40
1506679628.01,39166,17.81,74532.5,11.67,1.43,1.41,0,*45
1506679629.28,39167,17.81,74534.8,11.67,1.37,1.17,0,*44
1506679630.54,39168,17.81,74532.8,11.67,1.29,1.29,0,*49
1506679631.75,39169,17.81,74532.0,11.69,1.41,1.33,0,*43
1506679632.96,39170,17.81,74532.3,11.67,1.05,1.05,0,*40
1506679634.16,39171,17.81,74534.3,11.65,0.97,0.87,0,*42
1506679635.38,39172,17.81,74530.8,11.67,0.17,0.09,0,*7D
1506679636.65,39173,17.81,74534.5,11.67,1.13,1.13,0,*43
1506679637.88,39174,17.81,74530.3,11.65,0.91,0.79,0,*40
1506679639.11,39175,17.81,74532.0,11.65,0.91,0.79,0,*41
1506679640.34,39176,17.81,74532.8,11.67,1.17,1.05,0,*45
1506679641.6,39177,17.81,74532.5,11.67,1.63,1.51,0,*46
1506679642.83,39178,17.81,74530.8,11.65,1.51,1.51,0,*4A
1506679644.04,39179,17.81,74530.5,11.67,0.43,0.33,0,*4E
1506679645.26,39180,17.81,74536.5,11.65,0.67,0.63,0,*49
1506679646.46,39181,17.81,74532.3,11.65,0.67,0.67,0,*4C
1506679647.68,39182,17.81,74534.8,11.63,0.29,0.25,0,*45
1506679648.91,39183,17.81,74532.8,11.61,0.09,0.21,0,*70
1506679650.15,39184,17.81,74530.8,11.61,0.21,0.13,0,*4C
1506679651.37,39185,17.81,74534.8,11.61,-0.41,-0.49,0,*44
1506679652.59,39186,17.81,74530.5,11.59,0.55,0.47,0,*47
1506679653.81,39187,17.81,74534.5,11.59,0.63,0.63,0,*45
1506679655.03,39188,17.81,74534.5,11.59,0.21,0.17,0,*4F
1506679656.27,39189,17.81,74532.5,11.57,0.29,0.29,0,*45
1506679657.51,39190,17.81,74532.8,11.57,0.41,0.59,0,*44
1506679658.75,39191,17.81,74532.3,11.53,0.17,0.17,0,*48
1506679659.97,39192,17.81,74534.3,11.51,0.63,0.67,0,*4D
1506679661.21,39193,17.81,74534.5,11.53,0.51,0.63,0,*4B
1506679662.43,39194,17.81,74534.8,11.51,0.63,0.63,0,*4F
1506679663.65,39195,17.81,74534.5,11.51,-0.27,-0.33,0,*4B
1506679664.84,39196,17.81,74536.0,11.51,-0.19,-0.19,0,*4D
1506679666.05,39197,17.81,74534.5,11.47,-0.33,-0.27,0,*4E
1506679667.26,39198,17.81,74532.8,11.47,0.67,0.67,0,*44
1506679668.49,39199,17.81,74534.8,11.47,0.83,0.83,0,*45
1506679669.69,39200,17.81,74532.8,11.47,0.43,0.47,0,*42
1506679670.94,39201,17.81,74532.8,11.45,0.83,0.91,0,*46
1506679672.18,39202,17.81,74532.8,11.45,0.67,0.71,0,*41
1506679673.43,39203,17.81,74532.5,11.45,0.47,0.55,0,*44
1506679674.65,39204,17.81,74536.0,11.43,0.75,0.75,0,*46
1506679675.9,39205,17.81,74534.0,11.45,1.13,1.05,0,*46
1506679677.14,39206,17.81,74532.3,11.43,1.37,1.25,0,*47
1506679678.39,39207,17.81,74534.0,11.45,0.41,0.21,0,*45
1506679679.6,39208,17.81,74534.0,11.43,-0.23,-0.45,0,*4A
1506679680.84,39209,17.81,74532.5,11.41,0.37,0.21,0,*4E
1506679682.04,39210,17.81,74532.5,11.39,-0.11,-0.33,0,*4E
1506679683.27,39211,17.81,74534.0,11.37,0.17,-0.07,0,*5D
1506679684.53,39212,17.81,74534.0,11.37,0.55,0.37,0,*46
1506679685.78,39213,17.81,74532.8,11.37,0.71,0.47,0,*46
1506679686.98,39214,17.81,74536.0,11.35,-0.19,-0.37,0,*4A
1506679688.17,39215,17.81,74532.8,11.35,-0.29,-0.53,0,*4A
1506679689.38,39216,17.81,74532.0,11.35,-0.15,-0.27,0,*45
1506679690.57,39217,17.81,74532.8,11.29,-0.15,-0.33,0,*4C
1506679691.8,39218,17.81,74536.3,11.29,0.47,0.37,0,*40
1506679693.05,39219,17.81,74534.3,11.27,0.83,0.75,0,*41
1506679694.28,39220,17.81,74534.0,11.27,0.97,0.87,0,*43
1506679695.53,39221,17.81,74532.3,11.27,0.47,0.41,0,*45
1506679696.72,39222,17.81,74534.0,11.25,0.43,0.33,0,*45
1506679697.94,39223,17.81,74532.3,11.25,0.55,0.37,0,*47
1506679699.16,39224,17.81,74532.8,11.25,0.33,0.25,0,*43
1506679700.39,39225,17.81,74532.5,11.21,0.75,0.55,0,*43
1506679701.62,39226,17.81,74534.3,11.21,0.55,0.41,0,*47
1506679702.81,39227,17.81,74532.3,11.21,0.13,0.01,0,*70
1506679703.98,39228,17.81,74532.0,11.21,0.01,0.01,0,*4C
1506679705.21,39229,17.81,74534.0,11.21,0.51,0.51,0,*4D
1506679706.4,39230,17.81,74532.3,11.17,-0.03,-0.03,0,*40
1506679707.59,39231,17.81,74536.3,11.17,-0.03,-0.11,0,*72
1506679708.78,39232,17.81,74534.0,11.17,0.43,0.47,0,*46
1506679709.99,39233,17.81,74534.8,11.17,-0.41,-0.41,0,*43
1506679711.21,39234,17.81,74536.3,11.15,0.09,0.13,0,*7D
1506679712.43,39235,17.81,74532.8,11.13,0.33,0.33,0,*41
1506679713.62,39236,17.81,74532.0,11.13,0.05,0.17,0,*71